Location: Burleson Fire Department Station 2
(32.5391°N, 97.3075°W)
Time: 01:39:46
(UTC+00:00)

NOAA 15 - Pass Details

Date: 18 December 2025
Orbit: 793 x 810 km, 98.5° (Epoch: 20 January)

Event Time Altitude Azimuth Distance (km) Brightness Sun altitude
Rises 12:47:07 0° 30° (NNE) 3,300 7.9 -8.2°
Reaches altitude 10° 12:49:58 10° 45° (NE) 2,364 7.3 -7.6°
Maximum altitude 12:53:58 22° 96° (E) 1,668 7.4 -6.9°
Drops below altitude 10° 12:57:57 10° 146° (SE) 2,352 8.1 -6.1°
Sets 13:00:45 0° 161° (SSE) 3,277 8.5 -5.5°
